Find Starlink 5159

NORAD ID: 53974 Int'l Des: 2022-125 Owner: SPXS Country: US Constellation: starlink operational
LEOCIRCULAR

Live Position

Loading 3D Globe...

About Starlink 5159

Description loading...

Upcoming Passes

Passes for default location (London). Set your location on the main map for personalized predictions.

Altitude History

Loading altitude history...

Two-Line Element Set

1 53974U 22125L 26119.86071194 .00001137 00000-0 89501-4 0 9994
2 53974 53.2179 334.0069 0001487 87.3387 272.7775 15.08846118197330
Epoch: Apr 29, 2026 • Age: 6 hours

Current Status

Altitude 539.9 km
Velocity 7.59 km/s
Sub-Earth Point 5.95°N, 102.33°W
Launch Date Oct 5, 2022
Age 3.5 years
Type internet

Technical Details

Classification Payload
Mass 305.00 kg
Dry Mass 290.00 kg
Total Mass 305.00 kg
Length 0.20 m
Diameter 2.80 m
Span 9.00 m
Shape Box + pan
Manufacturer SPXS
Bus Type Starlink
Phase Status In Orbit
Owner/State SPXS/US

Most Searched